| time (UTC) | temp C | wind direction | speed KPH | gust KPH | rain 1hr cm | rain 24hr cm | rain mn cm | humidity % | barometer mb |
| 20260506003052 | 12 | 50 | 6.4 | 17.7 | 0.00 | 0.48 | 0.48 | 91 | 990.7 |
| 20260506001554 | 12 | 3 | 4.8 | 20.9 | 0.00 | 0.48 | 0.48 | 91 | 990.4 |
| 20260506000052 | 12 | 46 | 4.8 | 16.1 | 0.00 | 0.48 | 0.48 | 91 | 990.6 |
| 20260505234600 | 12 | 47 | 8.0 | 16.1 | 0.00 | 0.48 | 0.48 | 91 | 990.3 |
| 20260505233108 | 12 | 32 | 6.4 | 16.1 | 0.03 | 0.48 | 0.48 | 91 | 990.2 |
| 20260505231557 | 12 | 72 | 6.4 | 16.1 | 0.05 | 0.48 | 0.48 | 92 | 989.9 |
| 20260505230055 | 12 | 110 | 16.1 | 30.6 | 0.08 | 0.48 | 0.48 | 92 | 990.2 |
| 20260505224555 | 12 | 64 | 9.7 | 24.1 | 0.15 | 0.48 | 0.48 | 92 | 990.3 |
| 20260505223055 | 12 | 70 | 11.3 | 30.6 | 0.15 | 0.46 | 0.46 | 91 | 990.4 |
| 20260505221553 | 12 | 151 | 8.0 | 16.1 | 0.30 | 0.43 | 0.43 | 92 | 990.1 |
| 20260505220053 | 12 | 141 | 6.4 | 27.4 | 0.41 | 0.41 | 0.41 | 93 | 990.1 |
| 20260505214554 | 12 | 116 | 14.5 | 30.6 | 0.33 | 0.33 | 0.33 | 92 | 990.7 |
| 20260505213053 | 13 | 102 | 14.5 | 29.0 | 0.30 | 0.30 | 0.30 | 90 | 990.2 |
| 20260505211606 | 15 | 153 | 14.5 | 54.7 | 0.10 | 0.10 | 0.10 | 81 | 989.0 |
| 20260505210054 | 20 | 62 | 17.7 | 35.4 | 0.00 | 0.00 | 0.00 | 47 | 987.1 |
| 20260505204601 | 21 | 42 | 16.1 | 33.8 | 0.00 | 0.00 | 0.00 | 47 | 986.7 |
| 20260505203055 | 20 | 15 | 8.0 | 32.2 | 0.00 | 0.00 | 0.00 | 48 | 986.5 |
| 20260505201559 | 20 | 47 | 8.0 | 30.6 | 0.00 | 0.00 | 0.00 | 48 | 986.6 |
| 20260505200054 | 20 | 331 | 9.7 | 32.2 | 0.00 | 0.00 | 0.00 | 49 | 986.6 |
| 20260505194607 | 20 | 38 | 19.3 | 37.0 | 0.00 | 0.00 | 0.00 | 49 | 986.9 |
| 20260505193052 | 21 | 40 | 8.0 | 38.6 | 0.00 | 0.00 | 0.00 | 49 | 987.1 |
| 20260505191550 | 21 | 29 | 20.9 | 41.8 | 0.00 | 0.00 | 0.00 | 48 | 987.0 |
| 20260505190052 | 21 | 81 | 16.1 | 37.0 | 0.00 | 0.00 | 0.00 | 50 | 987.1 |
| 20260505184550 | 21 | 17 | 22.5 | 43.5 | 0.00 | 0.00 | 0.00 | 47 | 987.3 |
| 20260505183051 | 21 | 45 | 16.1 | 32.2 | 0.00 | 0.00 | 0.00 | 49 | 987.7 |
| 20260505181555 | 20 | 48 | 8.0 | 27.4 | 0.00 | 0.00 | 0.00 | 52 | 987.7 |
| 20260505180051 | 20 | 45 | 20.9 | 46.7 | 0.00 | 0.00 | 0.00 | 52 | 987.7 |
| 20260505174555 | 20 | 45 | 19.3 | 38.6 | 0.00 | 0.03 | 0.00 | 52 | 987.9 |
| 20260505173051 | 20 | 41 | 16.1 | 33.8 | 0.00 | 0.03 | 0.00 | 52 | 988.2 |
| 20260505171553 | 19 | 65 | 20.9 | 41.8 | 0.00 | 0.03 | 0.00 | 52 | 988.6 |
| 20260505170048 | 19 | 52 | 14.5 | 37.0 | 0.00 | 0.03 | 0.00 | 53 | 988.5 |
| 20260505164615 | 18 | 59 | 20.9 | 37.0 | 0.00 | 0.05 | 0.00 | 56 | 988.8 |
| 20260505163102 | 18 | 32 | 19.3 | 32.2 | 0.00 | 0.05 | 0.00 | 57 | 989.0 |
| 20260505161607 | 18 | 48 | 16.1 | 33.8 | 0.00 | 0.05 | 0.00 | 56 | 989.3 |
| 20260505153051 | 18 | 56 | 16.1 | 35.4 | 0.00 | 0.08 | 0.00 | 57 | 989.6 |
| 20260505151555 | 17 | 49 | 16.1 | 32.2 | 0.00 | 0.08 | 0.00 | 58 | 989.9 |
| 20260505130110 | 15 | 23 | 16.1 | 24.1 | 0.00 | 0.08 | 0.00 | 59 | 989.9 |
| 20260505124600 | 15 | 31 | 17.7 | 30.6 | 0.00 | 0.08 | 0.00 | 58 | 989.6 |
| 20260505123051 | 15 | 58 | 12.9 | 27.4 | 0.00 | 0.08 | 0.00 | 58 | 990.0 |
| 20260505121555 | 14 | 40 | 16.1 | 30.6 | 0.00 | 0.08 | 0.00 | 61 | 990.1 |
| 20260505120108 | 13 | 59 | 14.5 | 27.4 | 0.00 | 0.08 | 0.00 | 60 | 990.4 |
| 20260505114555 | 13 | 20 | 12.9 | 25.7 | 0.00 | 0.08 | 0.00 | 61 | 990.5 |
| 20260505113054 | 13 | 20 | 16.1 | 29.0 | 0.00 | 0.08 | 0.00 | 61 | 990.5 |
| 20260505111547 | 12 | 41 | 16.1 | 29.0 | 0.00 | 0.08 | 0.00 | 62 | 990.4 |
| 20260505101552 | 12 | 27 | 19.3 | 29.0 | 0.00 | 0.08 | 0.00 | 62 | 990.2 |
| 20260505100048 | 12 | 70 | 14.5 | 30.6 | 0.00 | 0.08 | 0.00 | 62 | 990.2 |
| 20260505094550 | 12 | 33 | 19.3 | 32.2 | 0.00 | 0.08 | 0.00 | 61 | 990.2 |
| 20260505093053 | 12 | 11 | 17.7 | 27.4 | 0.00 | 0.08 | 0.00 | 61 | 990.3 |
| 20260505091550 | 12 | 33 | 16.1 | 30.6 | 0.00 | 0.08 | 0.00 | 61 | 990.3 |
| 20260505090053 | 12 | 27 | 16.1 | 33.8 | 0.00 | 0.08 | 0.00 | 60 | 990.3 |
| 20260505084551 | 12 | 64 | 17.7 | 30.6 | 0.00 | 0.08 | 0.00 | 59 | 990.3 |
| 20260505083049 | 12 | 61 | 17.7 | 37.0 | 0.00 | 0.08 | 0.00 | 59 | 990.4 |
| 20260505081554 | 11 | 37 | 17.7 | 29.0 | 0.00 | 0.08 | 0.00 | 59 | 990.5 |
| 20260505080050 | 11 | 42 | 14.5 | 27.4 | 0.00 | 0.08 | 0.00 | 59 | 990.6 |
| 20260505074553 | 11 | 22 | 14.5 | 29.0 | 0.00 | 0.08 | 0.00 | 59 | 990.5 |
| 20260505073050 | 11 | 38 | 14.5 | 29.0 | 0.00 | 0.08 | 0.00 | 59 | 990.6 |
| 20260505071554 | 11 | 33 | 17.7 | 30.6 | 0.00 | 0.08 | 0.00 | 60 | 990.6 |
| 20260505070053 | 11 | 11 | 16.1 | 29.0 | 0.00 | 0.08 | 0.00 | 60 | 990.5 |
| 20260505064549 | 11 | 29 | 19.3 | 33.8 | 0.00 | 0.08 | 0.00 | 60 | 990.6 |
| 20260505063048 | 11 | 23 | 19.3 | 30.6 | 0.00 | 0.08 | 0.00 | 60 | 990.6 |
| 20260505061554 | 11 | 8 | 16.1 | 25.7 | 0.00 | 0.08 | 0.00 | 60 | 990.4 |
| 20260505060056 | 11 | 12 | 19.3 | 32.2 | 0.00 | 0.08 | 0.00 | 59 | 990.4 |
| 20260505054557 | 11 | 16 | 17.7 | 32.2 | 0.00 | 0.08 | 0.00 | 60 | 990.6 |
| 20260505053101 | 11 | 7 | 16.1 | 27.4 | 0.00 | 0.08 | 0.00 | 60 | 990.6 |
| 20260505051554 | 11 | 38 | 16.1 | 24.1 | 0.00 | 0.08 | 0.00 | 60 | 990.5 |
| 20260505041553 | 11 | 43 | 14.5 | 27.4 | 0.00 | 0.08 | 0.00 | 61 | 990.5 |
| 20260505040054 | 11 | 15 | 14.5 | 25.7 | 0.00 | 0.08 | 0.00 | 61 | 990.3 |
| 20260505034550 | 11 | 29 | 16.1 | 22.5 | 0.00 | 0.08 | 0.08 | 62 | 990.3 |
| 20260505033051 | 11 | 31 | 14.5 | 24.1 | 0.00 | 0.08 | 0.08 | 62 | 990.3 |
| 20260505031549 | 11 | 10 | 14.5 | 24.1 | 0.00 | 0.08 | 0.08 | 62 | 990.4 |
| 20260505030053 | 11 | 8 | 14.5 | 25.7 | 0.00 | 0.08 | 0.08 | 63 | 990.3 |
| 20260505024552 | 11 | 12 | 14.5 | 22.5 | 0.00 | 0.08 | 0.08 | 65 | 990.5 |
| 20260505023055 | 11 | 25 | 14.5 | 22.5 | 0.00 | 0.08 | 0.08 | 65 | 990.5 |
| 20260505021552 | 10 | 32 | 14.5 | 19.3 | 0.00 | 0.08 | 0.08 | 66 | 990.6 |
| 20260505020055 | 11 | 22 | 12.9 | 22.5 | 0.00 | 0.08 | 0.08 | 66 | 990.6 |
| 20260505014553 | 11 | 35 | 11.3 | 24.1 | 0.00 | 0.08 | 0.08 | 66 | 990.8 |
| 20260505013054 | 10 | 6 | 14.5 | 24.1 | 0.00 | 0.08 | 0.08 | 68 | 990.7 |
| 20260505011554 | 10 | 11 | 14.5 | 20.9 | 0.00 | 0.08 | 0.08 | 70 | 990.4 |
| 20260505010101 | 10 | 22 | 11.3 | 19.3 | 0.00 | 0.08 | 0.08 | 69 | 990.4 |
| 20260505004602 | 10 | 49 | 12.9 | 22.5 | 0.00 | 0.08 | 0.08 | 70 | 990.2 |